This is the latest recevied weather packets stored in our database for station/object DH1NAI-6. If no packets are shown the sender has not sent any weather packets the latest 10 day(s).
| Time | Temp. | Humidity | Pressure | Rain* | Wind** | Luminosity | Snow |
|---|---|---|---|---|---|---|---|
| 1777903762 | 21.67° C | 46% | 1011 hPa | 0 mm | - | 136 W/m² | - |
| 1777903154 | 21.11° C | 47% | 1010.8 hPa | 0 mm | - | 131 W/m² | - |
| 1777902546 | 21.11° C | 46% | 1010.9 hPa | 0 mm | - | 149 W/m² | - |
| 1777901939 | 22.22° C | 45% | 1010.9 hPa | 0 mm | - | 142 W/m² | - |
| 1777901330 | 21.67° C | 48% | 1010.9 hPa | 0 mm | - | 182 W/m² | - |
| 1777900722 | 20.56° C | 48% | 1011.1 hPa | 0 mm | - | 182 W/m² | - |
| 1777900111 | 21.67° C | 47% | 1011.3 hPa | 0 mm | - | 181 W/m² | - |
| 1777899506 | 21.67° C | 46% | 1011.1 hPa | 0 mm | - | 199 W/m² | - |
| 1777898898 | 21.67° C | 47% | 1011.5 hPa | 0 mm | - | 183 W/m² | - |
| 1777898290 | 21.11° C | 49% | 1011.5 hPa | 0 mm | - | 167 W/m² | - |
| 1777897682 | 20.56° C | 50% | 1011.6 hPa | 0 mm | - | 117 W/m² | - |
| 1777897075 | 20.56° C | 50% | 1011.5 hPa | 0 mm | - | 79 W/m² | - |
| 1777896466 | 20° C | 49% | 1011.3 hPa | 0 mm | - | 190 W/m² | - |
| 1777895859 | 20.56° C | 51% | 1011.6 hPa | 0 mm | - | 152 W/m² | - |
| 1777895250 | 20.56° C | 49% | 1011.6 hPa | 0 mm | - | 180 W/m² | - |
| 1777894643 | 20.56° C | 49% | 1011.7 hPa | 0 mm | - | 196 W/m² | - |
| 1777894034 | 20° C | 50% | 1011.7 hPa | 0 mm | - | 188 W/m² | - |
| 1777893426 | 20.56° C | 52% | 1011.7 hPa | 0 mm | - | 155 W/m² | - |
| 1777892818 | 20° C | 51% | 1011.9 hPa | 0 mm | - | 193 W/m² | - |
| 1777892211 | 20° C | 50% | 1011.9 hPa | 0 mm | - | 195 W/m² | - |
| 1777891602 | 18.89° C | 51% | 1012.1 hPa | 0 mm | - | 177 W/m² | - |
| 1777890994 | 19.44° C | 51% | 1012.1 hPa | 0 mm | - | 168 W/m² | - |
| 1777890386 | 19.44° C | 54% | 1012.2 hPa | 0 mm | - | 177 W/m² | - |
| 1777889779 | 19.44° C | 53% | 1012.3 hPa | 0 mm | - | 184 W/m² | - |
| 1777889170 | 18.33° C | 52% | 1012.3 hPa | 0 mm | - | 191 W/m² | - |
* Rain latest hour (hover to see other rain measurements)
** Current wind speed in m/s (hover to see current wind gust speed)